When you browse on this site, cookies collect data to enhance your experience and personalize the content and advertising you see.
Visit our Privacy Policy to learn more. By continuing to use the site, you agree to this use of cookies and data.
  • In Österreich
  • Länderverzeichnis
  • Für 7 Tage
  • Wassertemperatur
  • Wetterkarte
  • News
  • Widgets
  • user-avatar
    Anmelden

    Stündliche Wetter Widin

    Heute, 18 Oktober, Freitag

    Zeit Temperatur Niederschläge Wind Luftdruck Luftfeuchtigkeit
    00:00 +18°C° 0 mm 1 m/S 760 mmHg 55%
    01:00 +18°C° 0 mm 1 m/S 760 mmHg 57%
    02:00 +16°C° 0 mm 1 m/S 760 mmHg 60%
    03:00 +16°C° 0 mm 1 m/S 760 mmHg 62%
    04:00 +15°C° 0 mm 1 m/S 760 mmHg 64%
    05:00 +15°C° 0 mm 1 m/S 760 mmHg 66%
    06:00 +15°C° 0 mm 1 m/S 760 mmHg 64%
    07:00 +16°C° 0 mm 1 m/S 760 mmHg 63%
    08:00 +16°C° 0 mm 1 m/S 760 mmHg 61%
    09:00 +19°C° 0 mm 1 m/S 760 mmHg 54%
    10:00 +21°C° 0 mm 1 m/S 760 mmHg 48%
    11:00 +23°C° 0 mm 1 m/S 760 mmHg 41%
    12:00 +25°C° 0 mm 1 m/S 760 mmHg 38%
    13:00 +26°C° 0 mm 2 m/S 759 mmHg 35%
    14:00 +27°C° 0 mm 2 m/S 759 mmHg 32%
    15:00 +27°C° 0 mm 2 m/S 758 mmHg 33%
    16:00 +26°C° 0 mm 1 m/S 758 mmHg 34%
    17:00 +26°C° 0 mm 1 m/S 758 mmHg 35%
    18:00 +24°C° 0 mm 1 m/S 758 mmHg 38%
    19:00 +23°C° 0 mm 1 m/S 758 mmHg 42%
    20:00 +21°C° 0 mm 1 m/S 758 mmHg 45%
    21:00 +20°C° 0 mm 1 m/S 759 mmHg 47%
    22:00 +20°C° 0 mm 1 m/S 759 mmHg 50%
    23:00 +19°C° 0 mm 1 m/S 760 mmHg 52%

    Morgen, 19 Oktober, Samstag

    Zeit Temperatur Niederschläge Wind Luftdruck Luftfeuchtigkeit
    00:00 +19°C° 0 mm 1 m/S 760 mmHg 54%
    01:00 +18°C° 0 mm 1 m/S 759 mmHg 56%
    02:00 +18°C° 0 mm 1 m/S 759 mmHg 57%
    03:00 +16°C° 0 mm 1 m/S 760 mmHg 60%
    04:00 +16°C° 0 mm 1 m/S 760 mmHg 62%
    05:00 +15°C° 0 mm 1 m/S 760 mmHg 64%
    06:00 +16°C° 0 mm 1 m/S 760 mmHg 63%
    07:00 +15°C° 0 mm 0 m/S 760 mmHg 62%
    08:00 +16°C° 0 mm 0 m/S 760 mmHg 60%
    09:00 +20°C° 0 mm 1 m/S 760 mmHg 54%
    10:00 +22°C° 0 mm 1 m/S 760 mmHg 48%
    11:00 +24°C° 0 mm 1 m/S 760 mmHg 42%
    12:00 +25°C° 0 mm 1 m/S 759 mmHg 38%
    13:00 +26°C° 0 mm 2 m/S 759 mmHg 35%
    14:00 +28°C° 0 mm 2 m/S 759 mmHg 32%
    15:00 +27°C° 0 mm 2 m/S 759 mmHg 33%
    16:00 +27°C° 0 mm 1 m/S 758 mmHg 35%
    17:00 +26°C° 0 mm 1 m/S 758 mmHg 36%
    18:00 +25°C° 0 mm 1 m/S 759 mmHg 39%
    19:00 +23°C° 0 mm 1 m/S 759 mmHg 42%
    20:00 +22°C° 0 mm 1 m/S 759 mmHg 46%
    21:00 +21°C° 0 mm 1 m/S 760 mmHg 48%
    22:00 +20°C° 0 mm 1 m/S 760 mmHg 50%
    23:00 +20°C° 0 mm 1 m/S 760 mmHg 52%

    übermorgen, 20 Oktober, Sonntag

    Zeit Temperatur Niederschläge Wind Luftdruck Luftfeuchtigkeit
    00:00 +19°C° 0 mm 1 m/S 760 mmHg 54%
    01:00 +19°C° 0 mm 1 m/S 760 mmHg 55%
    02:00 +18°C° 0 mm 1 m/S 761 mmHg 57%
    03:00 +18°C° 0 mm 1 m/S 761 mmHg 60%
    04:00 +16°C° 0 mm 1 m/S 761 mmHg 62%
    05:00 +16°C° 0 mm 1 m/S 761 mmHg 64%
    06:00 +16°C° 0 mm 1 m/S 761 mmHg 63%
    07:00 +18°C° 0 mm 1 m/S 761 mmHg 61%
    08:00 +18°C° 0 mm 1 m/S 761 mmHg 60%
    09:00 +20°C° 0 mm 1 m/S 761 mmHg 54%
    10:00 +22°C° 0 mm 1 m/S 761 mmHg 48%
    11:00 +24°C° 0 mm 1 m/S 761 mmHg 42%
    12:00 +25°C° 0 mm 1 m/S 761 mmHg 39%
    13:00 +26°C° 0 mm 1 m/S 761 mmHg 37%
    14:00 +28°C° 0 mm 1 m/S 760 mmHg 34%
    15:00 +27°C° 0 mm 1 m/S 760 mmHg 35%
    16:00 +27°C° 0 mm 1 m/S 760 mmHg 37%
    17:00 +26°C° 0 mm 1 m/S 760 mmHg 38%
    18:00 +25°C° 0 mm 1 m/S 760 mmHg 42%
    19:00 +23°C° 0 mm 1 m/S 761 mmHg 45%
    20:00 +22°C° 0 mm 1 m/S 761 mmHg 49%
    21:00 +21°C° 0 mm 1 m/S 761 mmHg 51%
    22:00 +20°C° 0 mm 1 m/S 762 mmHg 53%
    23:00 +20°C° 0 mm 1 m/S 762 mmHg 55%

    21 Oktober, Montag

    Zeit Temperatur Niederschläge Wind Luftdruck Luftfeuchtigkeit
    00:00 +19°C° 0 mm 1 m/S 762 mmHg 57%
    01:00 +19°C° 0 mm 1 m/S 762 mmHg 59%
    02:00 +18°C° 0 mm 1 m/S 762 mmHg 61%
    03:00 +18°C° 0 mm 1 m/S 762 mmHg 63%
    04:00 +16°C° 0 mm 1 m/S 762 mmHg 66%
    05:00 +16°C° 0 mm 1 m/S 762 mmHg 68%
    06:00 +16°C° 0 mm 1 m/S 762 mmHg 66%
    07:00 +18°C° 0 mm 1 m/S 762 mmHg 65%
    08:00 +18°C° 0 mm 1 m/S 762 mmHg 63%
    09:00 +20°C° 0 mm 1 m/S 762 mmHg 57%
    10:00 +23°C° 0 mm 1 m/S 763 mmHg 50%
    11:00 +25°C° 0 mm 1 m/S 763 mmHg 43%
    12:00 +26°C° 0 mm 1 m/S 762 mmHg 40%
    13:00 +27°C° 0 mm 1 m/S 762 mmHg 37%
    14:00 +28°C° 0 mm 1 m/S 762 mmHg 35%
    15:00 +27°C° 0 mm 1 m/S 762 mmHg 36%
    16:00 +27°C° 0 mm 1 m/S 761 mmHg 38%
    17:00 +26°C° 0 mm 1 m/S 761 mmHg 40%
    18:00 +25°C° 0 mm 1 m/S 762 mmHg 43%
    19:00 +21°C° 0 mm 0 m/S 762 mmHg 47%
    20:00 +20°C° 0 mm 0 m/S 762 mmHg 51%
    21:00 +19°C° 0 mm 0 m/S 762 mmHg 53%
    22:00 +19°C° 0 mm 0 m/S 762 mmHg 55%
    23:00 +18°C° 0 mm 0 m/S 763 mmHg 57%

    22 Oktober, Dienstag

    Zeit Temperatur Niederschläge Wind Luftdruck Luftfeuchtigkeit
    00:00 +18°C° 0 mm 0 m/S 763 mmHg 58%
    01:00 +19°C° 0 mm 1 m/S 763 mmHg 60%
    02:00 +19°C° 0 mm 1 m/S 763 mmHg 62%
    03:00 +18°C° 0 mm 1 m/S 763 mmHg 63%
    04:00 +18°C° 0 mm 1 m/S 763 mmHg 65%
    05:00 +16°C° 0 mm 1 m/S 763 mmHg 66%
    06:00 +18°C° 0 mm 1 m/S 763 mmHg 65%
    07:00 +18°C° 0 mm 1 m/S 763 mmHg 63%
    08:00 +19°C° 0 mm 1 m/S 763 mmHg 61%
    09:00 +21°C° 0 mm 1 m/S 763 mmHg 54%
    10:00 +24°C° 0 mm 1 m/S 763 mmHg 46%
    11:00 +26°C° 0 mm 1 m/S 763 mmHg 39%
    12:00 +28°C° 0 mm 1 m/S 763 mmHg 35%
    13:00 +29°C° 0 mm 1 m/S 762 mmHg 32%
    14:00 +28°C° 0 mm 0 m/S 762 mmHg 28%
    15:00 +29°C° 0 mm 1 m/S 762 mmHg 30%
    16:00 +28°C° 0 mm 1 m/S 762 mmHg 31%
    17:00 +27°C° 0 mm 1 m/S 762 mmHg 33%
    18:00 +26°C° 0 mm 1 m/S 762 mmHg 36%
    19:00 +24°C° 0 mm 1 m/S 762 mmHg 40%
    20:00 +23°C° 0 mm 1 m/S 763 mmHg 43%
    21:00 +22°C° 0 mm 1 m/S 763 mmHg 46%
    22:00 +21°C° 0 mm 1 m/S 763 mmHg 48%
    23:00 +21°C° 0 mm 1 m/S 763 mmHg 50%

    23 Oktober, Mittwoch

    Zeit Temperatur Niederschläge Wind Luftdruck Luftfeuchtigkeit
    00:00 +20°C° 0 mm 1 m/S 763 mmHg 53%
    01:00 +20°C° 0 mm 1 m/S 763 mmHg 55%
    02:00 +19°C° 0 mm 1 m/S 763 mmHg 57%
    03:00 +18°C° 0 mm 1 m/S 763 mmHg 60%
    04:00 +18°C° 0 mm 1 m/S 763 mmHg 64%
    05:00 +16°C° 0 mm 2 m/S 764 mmHg 67%
    06:00 +16°C° 0 mm 2 m/S 764 mmHg 67%
    07:00 +17°C° 0 mm 2 m/S 764 mmHg 68%
    08:00 +17°C° 0 mm 2 m/S 764 mmHg 68%
    09:00 +19°C° 0 mm 2 m/S 764 mmHg 61%
    10:00 +21°C° 0 mm 3 m/S 764 mmHg 55%
    11:00 +24°C° 0 mm 3 m/S 764 mmHg 48%
    12:00 +25°C° 0 mm 3 m/S 763 mmHg 45%
    13:00 +26°C° 0 mm 3 m/S 763 mmHg 42%
    14:00 +27°C° 0 mm 3 m/S 763 mmHg 39%
    15:00 +26°C° 0 mm 3 m/S 762 mmHg 40%
    16:00 +25°C° 0 mm 3 m/S 762 mmHg 42%
    17:00 +25°C° 0 mm 3 m/S 762 mmHg 44%
    18:00 +22°C° 0 mm 3 m/S 762 mmHg 49%
    19:00 +21°C° 0 mm 3 m/S 762 mmHg 54%
    20:00 +19°C° 0 mm 3 m/S 763 mmHg 59%
    21:00 +19°C° 0 mm 3 m/S 763 mmHg 61%
    22:00 +18°C° 0 mm 3 m/S 763 mmHg 64%
    23:00 +17°C° 0 mm 2 m/S 763 mmHg 66%
    Mehr zeigen